owner,sensor,date,latitude,longitude,vertical_datum,wind_speed,wind_to_direction,wind_speed_of_gust,qcFlag 
WAVCIS,ioos:station:WAVCIS:CSI06:1,2011-07-01T00:00:00Z,28.8667,-90.4833,10.0,3.323,214.0,,'11111222,11111222,99999999' 
WAVCIS,ioos:station:WAVCIS:CSI06:1,2011-07-01T01:00:00Z,28.8667,-90.4833,10.0,3.277,211.0,,'11111222,11111222,99999999' 
WAVCIS,ioos:station:WAVCIS:CSI06:1,2011-07-01T02:00:00Z,28.8667,-90.4833,10.0,3.258,210.0,,'11111222,11111222,99999999' 
WAVCIS,ioos:station:WAVCIS:CSI06:1,2011-07-01T03:00:00Z,28.8667,-90.4833,10.0,3.26,215.0,,'11111222,11111222,99999999' 
WAVCIS,ioos:station:WAVCIS:CSI06:1,2011-07-01T04:00:00Z,28.8667,-90.4833,10.0,4.156,222.0,,'11111222,11111222,99999999' 
WAVCIS,ioos:station:WAVCIS:CSI06:1,2011-07-01T05:00:00Z,28.8667,-90.4833,10.0,4.309,216.0,,'11111222,11111222,99999999' 
WAVCIS,ioos:station:WAVCIS:CSI06:1,2011-07-01T06:00:00Z,28.8667,-90.4833,10.0,4.26,224.0,,'11111222,11111222,99999999' 
WAVCIS,ioos:station:WAVCIS:CSI06:1,2011-07-01T07:00:00Z,28.8667,-90.4833,10.0,4.591,230.0,,'11111222,11111222,99999999' 
WAVCIS,ioos:station:WAVCIS:CSI06:1,2011-07-01T08:00:00Z,28.8667,-90.4833,10.0,4.434,238.0,,'11111222,11111222,99999999' 
WAVCIS,ioos:station:WAVCIS:CSI06:1,2011-07-01T09:00:00Z,28.8667,-90.4833,10.0,3.275,240.0,,'11111222,11111222,99999999' 
WAVCIS,ioos:station:WAVCIS:CSI06:1,2011-07-01T10:00:00Z,28.8667,-90.4833,10.0,3.596,252.0,,'11111222,11111222,99999999' 
WAVCIS,ioos:station:WAVCIS:CSI06:1,2011-07-01T11:00:00Z,28.8667,-90.4833,10.0,3.111,271.0,,'11111222,11111222,99999999' 
WAVCIS,ioos:station:WAVCIS:CSI06:1,2011-07-01T12:00:00Z,28.8667,-90.4833,10.0,2.085,269.0,,'11111222,11111222,99999999' 
WAVCIS,ioos:station:WAVCIS:CSI06:1,2011-07-01T13:00:00Z,28.8667,-90.4833,10.0,2.557,310.0,,'11111222,11111222,99999999' 
WAVCIS,ioos:station:WAVCIS:CSI06:1,2011-07-01T14:00:00Z,28.8667,-90.4833,10.0,2.834,338.0,,'11111222,11111222,99999999' 
WAVCIS,ioos:station:WAVCIS:CSI06:1,2011-07-01T15:00:00Z,28.8667,-90.4833,10.0,2.863,337.0,,'11111222,11111222,99999999' 
WAVCIS,ioos:station:WAVCIS:CSI06:1,2011-07-01T16:00:00Z,28.8667,-90.4833,10.0,3.227,330.0,,'11111222,11111222,99999999' 
WAVCIS,ioos:station:WAVCIS:CSI06:1,2011-07-01T17:00:00Z,28.8667,-90.4833,10.0,2.247,330.0,,'11111222,11111222,99999999' 
WAVCIS,ioos:station:WAVCIS:CSI06:1,2011-07-01T18:00:00Z,28.8667,-90.4833,10.0,1.0,322.0,,'11111222,11111222,99999999' 
WAVCIS,ioos:station:WAVCIS:CSI06:1,2011-07-01T19:00:00Z,28.8667,-90.4833,10.0,0.802,273.0,,'11111222,11111222,99999999' 
WAVCIS,ioos:station:WAVCIS:CSI06:1,2011-07-01T20:00:00Z,28.8667,-90.4833,10.0,1.315,278.0,,'11111222,11111222,99999999' 
WAVCIS,ioos:station:WAVCIS:CSI06:1,2011-07-01T21:00:00Z,28.8667,-90.4833,10.0,2.224,206.0,,'11111222,11111222,99999999' 
WAVCIS,ioos:station:WAVCIS:CSI06:1,2011-07-01T22:00:00Z,28.8667,-90.4833,10.0,3.037,207.0,,'11111222,11111222,99999999' 
WAVCIS,ioos:station:WAVCIS:CSI06:1,2011-07-01T23:00:00Z,28.8667,-90.4833,10.0,4.567,240.0,,'11111222,11111222,99999999' 
WAVCIS,ioos:station:WAVCIS:CSI06:1,2011-07-02T00:00:00Z,28.8667,-90.4833,10.0,4.478,226.0,,'11111222,11111222,99999999' 
WAVCIS,ioos:station:WAVCIS:CSI06:1,2011-07-02T01:00:00Z,28.8667,-90.4833,10.0,4.78,240.0,,'11111222,11111222,99999999' 
WAVCIS,ioos:station:WAVCIS:CSI06:1,2011-07-02T02:00:00Z,28.8667,-90.4833,10.0,3.818,240.0,,'11111222,11111222,99999999' 
WAVCIS,ioos:station:WAVCIS:CSI06:1,2011-07-02T03:00:00Z,28.8667,-90.4833,10.0,3.249,242.0,,'11111222,11111222,99999999' 
WAVCIS,ioos:station:WAVCIS:CSI06:1,2011-07-02T04:00:00Z,28.8667,-90.4833,10.0,3.373,243.0,,'11111222,11111222,99999999' 
WAVCIS,ioos:station:WAVCIS:CSI06:1,2011-07-02T05:00:00Z,28.8667,-90.4833,10.0,3.252,247.0,,'11111222,11111222,99999999' 
WAVCIS,ioos:station:WAVCIS:CSI06:1,2011-07-02T06:00:00Z,28.8667,-90.4833,10.0,3.517,247.0,,'11111222,11111222,99999999' 
WAVCIS,ioos:station:WAVCIS:CSI06:1,2011-07-02T07:00:00Z,28.8667,-90.4833,10.0,3.417,248.0,,'11111222,11111222,99999999' 
WAVCIS,ioos:station:WAVCIS:CSI06:1,2011-07-02T08:00:00Z,28.8667,-90.4833,10.0,3.819,248.0,,'11111222,11111222,99999999' 
WAVCIS,ioos:station:WAVCIS:CSI06:1,2011-07-02T09:00:00Z,28.8667,-90.4833,10.0,3.916,286.0,,'11111222,11111222,99999999' 
WAVCIS,ioos:station:WAVCIS:CSI06:1,2011-07-02T10:00:00Z,28.8667,-90.4833,10.0,3.708,287.0,,'11111222,11111222,99999999' 
WAVCIS,ioos:station:WAVCIS:CSI06:1,2011-07-02T11:00:00Z,28.8667,-90.4833,10.0,4.167,302.0,,'11111222,11111222,99999999' 
WAVCIS,ioos:station:WAVCIS:CSI06:1,2011-07-02T12:00:00Z,28.8667,-90.4833,10.0,4.348,334.0,,'11111222,11111222,99999999' 
WAVCIS,ioos:station:WAVCIS:CSI06:1,2011-07-02T13:00:00Z,28.8667,-90.4833,10.0,4.846,337.0,,'11111222,11111222,99999999' 
WAVCIS,ioos:station:WAVCIS:CSI06:1,2011-07-02T14:00:00Z,28.8667,-90.4833,10.0,3.872,354.0,,'11111222,11111222,99999999' 
WAVCIS,ioos:station:WAVCIS:CSI06:1,2011-07-02T15:00:00Z,28.8667,-90.4833,10.0,3.927,350.0,,'11111222,11111222,99999999' 
WAVCIS,ioos:station:WAVCIS:CSI06:1,2011-07-02T16:00:00Z,28.8667,-90.4833,10.0,3.534,335.0,,'11111222,11111222,99999999' 
WAVCIS,ioos:station:WAVCIS:CSI06:1,2011-07-02T17:00:00Z,28.8667,-90.4833,10.0,1.965,346.0,,'11111222,11111222,99999999' 
WAVCIS,ioos:station:WAVCIS:CSI06:1,2011-07-02T18:00:00Z,28.8667,-90.4833,10.0,0.436,49.0,,'11111222,11111222,99999999' 
WAVCIS,ioos:station:WAVCIS:CSI06:1,2011-07-02T19:00:00Z,28.8667,-90.4833,10.0,0.669,248.0,,'11111222,11111222,99999999' 
WAVCIS,ioos:station:WAVCIS:CSI06:1,2011-07-02T20:00:00Z,28.8667,-90.4833,10.0,2.108,232.0,,'11111222,11111222,99999999' 
WAVCIS,ioos:station:WAVCIS:CSI06:1,2011-07-02T21:00:00Z,28.8667,-90.4833,10.0,3.001,229.0,,'11111222,11111222,99999999' 
WAVCIS,ioos:station:WAVCIS:CSI06:1,2011-07-02T22:00:00Z,28.8667,-90.4833,10.0,7.74,335.0,,'11111222,11111222,99999999' 
WAVCIS,ioos:station:WAVCIS:CSI06:1,2011-07-02T23:00:00Z,28.8667,-90.4833,10.0,1.929,301.0,,'11111222,11111222,99999999' 
WAVCIS,ioos:station:WAVCIS:CSI06:1,2011-07-03T00:00:00Z,28.8667,-90.4833,10.0,1.29,227.0,,'11111222,11111222,99999999' 
WAVCIS,ioos:station:WAVCIS:CSI06:1,2011-07-03T01:00:00Z,28.8667,-90.4833,10.0,2.793,207.0,,'11111222,11111222,99999999' 
WAVCIS,ioos:station:WAVCIS:CSI06:1,2011-07-03T02:00:00Z,28.8667,-90.4833,10.0,3.459,217.0,,'11111222,11111222,99999999' 
WAVCIS,ioos:station:WAVCIS:CSI06:1,2011-07-03T03:00:00Z,28.8667,-90.4833,10.0,2.207,233.0,,'11111222,11111222,99999999' 
WAVCIS,ioos:station:WAVCIS:CSI06:1,2011-07-03T04:00:00Z,28.8667,-90.4833,10.0,2.266,237.0,,'11111222,11111222,99999999' 
WAVCIS,ioos:station:WAVCIS:CSI06:1,2011-07-03T05:00:00Z,28.8667,-90.4833,10.0,2.744,227.0,,'11111222,11111222,99999999' 
WAVCIS,ioos:station:WAVCIS:CSI06:1,2011-07-03T06:00:00Z,28.8667,-90.4833,10.0,2.99,236.0,,'11111222,11111222,99999999' 
WAVCIS,ioos:station:WAVCIS:CSI06:1,2011-07-03T07:00:00Z,28.8667,-90.4833,10.0,3.487,242.0,,'11111222,11111222,99999999' 
WAVCIS,ioos:station:WAVCIS:CSI06:1,2011-07-03T08:00:00Z,28.8667,-90.4833,10.0,3.095,243.0,,'11111222,11111222,99999999' 
WAVCIS,ioos:station:WAVCIS:CSI06:1,2011-07-03T09:00:00Z,28.8667,-90.4833,10.0,3.119,246.0,,'11111222,11111222,99999999' 
WAVCIS,ioos:station:WAVCIS:CSI06:1,2011-07-03T10:00:00Z,28.8667,-90.4833,10.0,3.255,265.0,,'11111222,11111222,99999999' 
WAVCIS,ioos:station:WAVCIS:CSI06:1,2011-07-03T11:00:00Z,28.8667,-90.4833,10.0,2.662,287.0,,'11111222,11111222,99999999' 
WAVCIS,ioos:station:WAVCIS:CSI06:1,2011-07-03T12:00:00Z,28.8667,-90.4833,10.0,3.323,327.0,,'11111222,11111222,99999999' 
WAVCIS,ioos:station:WAVCIS:CSI06:1,2011-07-03T13:00:00Z,28.8667,-90.4833,10.0,7.52,289.0,,'11111222,11111222,99999999' 
WAVCIS,ioos:station:WAVCIS:CSI06:1,2011-07-03T14:00:00Z,28.8667,-90.4833,10.0,3.049,314.0,,'11111222,11111222,99999999' 
WAVCIS,ioos:station:WAVCIS:CSI06:1,2011-07-03T15:00:00Z,28.8667,-90.4833,10.0,7.32,51.0,,'11111222,11111222,99999999' 
WAVCIS,ioos:station:WAVCIS:CSI06:1,2011-07-03T16:00:00Z,28.8667,-90.4833,10.0,5.072,311.0,,'11111222,11111222,99999999' 
WAVCIS,ioos:station:WAVCIS:CSI06:1,2011-07-03T17:00:00Z,28.8667,-90.4833,10.0,1.427,50.0,,'11111222,11111222,99999999' 
WAVCIS,ioos:station:WAVCIS:CSI06:1,2011-07-03T18:00:00Z,28.8667,-90.4833,10.0,1.516,60.0,,'11111222,11111222,99999999' 
WAVCIS,ioos:station:WAVCIS:CSI06:1,2011-07-03T19:00:00Z,28.8667,-90.4833,10.0,2.5,96.0,,'11111222,11111222,99999999' 
WAVCIS,ioos:station:WAVCIS:CSI06:1,2011-07-03T20:00:00Z,28.8667,-90.4833,10.0,3.553,106.0,,'11111222,11111222,99999999' 
WAVCIS,ioos:station:WAVCIS:CSI06:1,2011-07-03T21:00:00Z,28.8667,-90.4833,10.0,2.765,130.0,,'11111222,11111222,99999999' 
WAVCIS,ioos:station:WAVCIS:CSI06:1,2011-07-03T22:00:00Z,28.8667,-90.4833,10.0,3.453,138.0,,'11111222,11111222,99999999' 
WAVCIS,ioos:station:WAVCIS:CSI06:1,2011-07-03T23:00:00Z,28.8667,-90.4833,10.0,2.595,110.0,,'11111222,11111222,99999999' 
WAVCIS,ioos:station:WAVCIS:CSI06:1,2011-07-04T00:00:00Z,28.8667,-90.4833,10.0,3.362,134.0,,'11111222,11111222,99999999' 
WAVCIS,ioos:station:WAVCIS:CSI06:1,2011-07-04T01:00:00Z,28.8667,-90.4833,10.0,4.179,141.0,,'11111222,11111222,99999999' 
WAVCIS,ioos:station:WAVCIS:CSI06:1,2011-07-04T02:00:00Z,28.8667,-90.4833,10.0,3.411,135.0,,'11111222,11111222,99999999' 
WAVCIS,ioos:station:WAVCIS:CSI06:1,2011-07-04T03:00:00Z,28.8667,-90.4833,10.0,3.537,142.0,,'11111222,11111222,99999999' 
WAVCIS,ioos:station:WAVCIS:CSI06:1,2011-07-04T04:00:00Z,28.8667,-90.4833,10.0,3.059,127.0,,'11111222,11111222,99999999' 
WAVCIS,ioos:station:WAVCIS:CSI06:1,2011-07-04T05:00:00Z,28.8667,-90.4833,10.0,1.91,140.0,,'11111222,11111222,99999999' 
WAVCIS,ioos:station:WAVCIS:CSI06:1,2011-07-04T06:00:00Z,28.8667,-90.4833,10.0,3.208,141.0,,'11111222,11111222,99999999' 
WAVCIS,ioos:station:WAVCIS:CSI06:1,2011-07-04T07:00:00Z,28.8667,-90.4833,10.0,3.152,148.0,,'11111222,11111222,99999999' 
WAVCIS,ioos:station:WAVCIS:CSI06:1,2011-07-04T08:00:00Z,28.8667,-90.4833,10.0,3.247,148.0,,'11111222,11111222,99999999' 
WAVCIS,ioos:station:WAVCIS:CSI06:1,2011-07-04T09:00:00Z,28.8667,-90.4833,10.0,3.275,143.0,,'11111222,11111222,99999999' 
WAVCIS,ioos:station:WAVCIS:CSI06:1,2011-07-04T10:00:00Z,28.8667,-90.4833,10.0,2.266,153.0,,'11111222,11111222,99999999' 
WAVCIS,ioos:station:WAVCIS:CSI06:1,2011-07-04T11:00:00Z,28.8667,-90.4833,10.0,2.455,158.0,,'11111222,11111222,99999999' 
WAVCIS,ioos:station:WAVCIS:CSI06:1,2011-07-04T12:00:00Z,28.8667,-90.4833,10.0,2.843,122.0,,'11111222,11111222,99999999' 
WAVCIS,ioos:station:WAVCIS:CSI06:1,2011-07-04T13:00:00Z,28.8667,-90.4833,10.0,2.83,136.0,,'11111222,11111222,99999999' 
WAVCIS,ioos:station:WAVCIS:CSI06:1,2011-07-04T14:00:00Z,28.8667,-90.4833,10.0,3.339,98.0,,'11111222,11111222,99999999' 
WAVCIS,ioos:station:WAVCIS:CSI06:1,2011-07-04T15:00:00Z,28.8667,-90.4833,10.0,3.253,96.0,,'11111222,11111222,99999999' 
WAVCIS,ioos:station:WAVCIS:CSI06:1,2011-07-04T16:00:00Z,28.8667,-90.4833,10.0,3.38,98.0,,'11111222,11111222,99999999' 
WAVCIS,ioos:station:WAVCIS:CSI06:1,2011-07-04T17:00:00Z,28.8667,-90.4833,10.0,3.958,92.0,,'11111222,11111222,99999999' 
WAVCIS,ioos:station:WAVCIS:CSI06:1,2011-07-04T18:00:00Z,28.8667,-90.4833,10.0,5.461,93.0,,'11111222,11111222,99999999' 
WAVCIS,ioos:station:WAVCIS:CSI06:1,2011-07-04T19:00:00Z,28.8667,-90.4833,10.0,5.411,90.0,,'11111222,11111222,99999999' 
WAVCIS,ioos:station:WAVCIS:CSI06:1,2011-07-04T20:00:00Z,28.8667,-90.4833,10.0,5.507,96.0,,'11111222,11111222,99999999' 
WAVCIS,ioos:station:WAVCIS:CSI06:1,2011-07-04T21:00:00Z,28.8667,-90.4833,10.0,5.673,111.0,,'11111222,11111222,99999999' 
WAVCIS,ioos:station:WAVCIS:CSI06:1,2011-07-04T22:00:00Z,28.8667,-90.4833,10.0,4.382,128.0,,'11111222,11111222,99999999' 
WAVCIS,ioos:station:WAVCIS:CSI06:1,2011-07-04T23:00:00Z,28.8667,-90.4833,10.0,2.903,128.0,,'11111222,11111222,99999999' 
WAVCIS,ioos:station:WAVCIS:CSI06:1,2011-07-05T00:00:00Z,28.8667,-90.4833,10.0,3.779,131.0,,'11111222,11111222,99999999' 
WAVCIS,ioos:station:WAVCIS:CSI06:1,2011-07-05T01:00:00Z,28.8667,-90.4833,10.0,5.236,137.0,,'11111222,11111222,99999999' 
WAVCIS,ioos:station:WAVCIS:CSI06:1,2011-07-05T02:00:00Z,28.8667,-90.4833,10.0,4.549,132.0,,'11111222,11111222,99999999' 
WAVCIS,ioos:station:WAVCIS:CSI06:1,2011-07-05T03:00:00Z,28.8667,-90.4833,10.0,4.281,128.0,,'11111222,11111222,99999999' 
WAVCIS,ioos:station:WAVCIS:CSI06:1,2011-07-05T04:00:00Z,28.8667,-90.4833,10.0,4.571,134.0,,'11111222,11111222,99999999' 
WAVCIS,ioos:station:WAVCIS:CSI06:1,2011-07-05T05:00:00Z,28.8667,-90.4833,10.0,5.314,134.0,,'11111222,11111222,99999999' 
WAVCIS,ioos:station:WAVCIS:CSI06:1,2011-07-05T06:00:00Z,28.8667,-90.4833,10.0,3.563,135.0,,'11111222,11111222,99999999' 
WAVCIS,ioos:station:WAVCIS:CSI06:1,2011-07-05T07:00:00Z,28.8667,-90.4833,10.0,3.537,152.0,,'11111222,11111222,99999999' 
WAVCIS,ioos:station:WAVCIS:CSI06:1,2011-07-05T08:00:00Z,28.8667,-90.4833,10.0,3.256,170.0,,'11111222,11111222,99999999' 
WAVCIS,ioos:station:WAVCIS:CSI06:1,2011-07-05T09:00:00Z,28.8667,-90.4833,10.0,3.82,173.0,,'11111222,11111222,99999999' 
WAVCIS,ioos:station:WAVCIS:CSI06:1,2011-07-05T10:00:00Z,28.8667,-90.4833,10.0,3.442,178.0,,'11111222,11111222,99999999' 
WAVCIS,ioos:station:WAVCIS:CSI06:1,2011-07-05T11:00:00Z,28.8667,-90.4833,10.0,2.932,167.0,,'11111222,11111222,99999999' 
WAVCIS,ioos:station:WAVCIS:CSI06:1,2011-07-05T12:00:00Z,28.8667,-90.4833,10.0,2.707,164.0,,'11111222,11111222,99999999' 
WAVCIS,ioos:station:WAVCIS:CSI06:1,2011-07-05T13:00:00Z,28.8667,-90.4833,10.0,1.908,159.0,,'11111222,11111222,99999999' 
WAVCIS,ioos:station:WAVCIS:CSI06:1,2011-07-05T14:00:00Z,28.8667,-90.4833,10.0,1.543,118.0,,'11111222,11111222,99999999' 
WAVCIS,ioos:station:WAVCIS:CSI06:1,2011-07-05T15:00:00Z,28.8667,-90.4833,10.0,1.747,103.0,,'11111222,11111222,99999999' 
WAVCIS,ioos:station:WAVCIS:CSI06:1,2011-07-05T16:00:00Z,28.8667,-90.4833,10.0,2.12,106.0,,'11111222,11111222,99999999' 
WAVCIS,ioos:station:WAVCIS:CSI06:1,2011-07-05T17:00:00Z,28.8667,-90.4833,10.0,2.824,119.0,,'11111222,11111222,99999999' 
WAVCIS,ioos:station:WAVCIS:CSI06:1,2011-07-05T18:00:00Z,28.8667,-90.4833,10.0,2.981,116.0,,'11111222,11111222,99999999' 
WAVCIS,ioos:station:WAVCIS:CSI06:1,2011-07-05T19:00:00Z,28.8667,-90.4833,10.0,3.647,133.0,,'11111222,11111222,99999999' 
WAVCIS,ioos:station:WAVCIS:CSI06:1,2011-07-05T20:00:00Z,28.8667,-90.4833,10.0,4.012,139.0,,'11111222,11111222,99999999' 
WAVCIS,ioos:station:WAVCIS:CSI06:1,2011-07-05T21:00:00Z,28.8667,-90.4833,10.0,3.629,141.0,,'11111222,11111222,99999999' 
WAVCIS,ioos:station:WAVCIS:CSI06:1,2011-07-05T22:00:00Z,28.8667,-90.4833,10.0,2.835,153.0,,'11111222,11111222,99999999' 
WAVCIS,ioos:station:WAVCIS:CSI06:1,2011-07-05T23:00:00Z,28.8667,-90.4833,10.0,2.696,151.0,,'11111222,11111222,99999999' 
WAVCIS,ioos:station:WAVCIS:CSI06:1,2011-07-06T00:00:00Z,28.8667,-90.4833,10.0,3.417,152.0,,'11111222,11111222,99999999' 
WAVCIS,ioos:station:WAVCIS:CSI06:1,2011-07-06T01:00:00Z,28.8667,-90.4833,10.0,2.791,150.0,,'11111222,11111222,99999999' 
WAVCIS,ioos:station:WAVCIS:CSI06:1,2011-07-06T02:00:00Z,28.8667,-90.4833,10.0,3.87,140.0,,'11111222,11111222,99999999' 
WAVCIS,ioos:station:WAVCIS:CSI06:1,2011-07-06T03:00:00Z,28.8667,-90.4833,10.0,4.502,142.0,,'11111222,11111222,99999999' 
WAVCIS,ioos:station:WAVCIS:CSI06:1,2011-07-06T04:00:00Z,28.8667,-90.4833,10.0,6.421,168.0,,'11111222,11111222,99999999' 
WAVCIS,ioos:station:WAVCIS:CSI06:1,2011-07-06T05:00:00Z,28.8667,-90.4833,10.0,3.779,175.0,,'11111222,11111222,99999999' 
WAVCIS,ioos:station:WAVCIS:CSI06:1,2011-07-06T06:00:00Z,28.8667,-90.4833,10.0,2.214,181.0,,'11111222,11111222,99999999' 
WAVCIS,ioos:station:WAVCIS:CSI06:1,2011-07-06T07:00:00Z,28.8667,-90.4833,10.0,1.46,212.0,,'11111222,11111222,99999999' 
WAVCIS,ioos:station:WAVCIS:CSI06:1,2011-07-06T08:00:00Z,28.8667,-90.4833,10.0,1.621,182.0,,'11111222,11111222,99999999' 
WAVCIS,ioos:station:WAVCIS:CSI06:1,2011-07-06T09:00:00Z,28.8667,-90.4833,10.0,2.26,156.0,,'11111222,11111222,99999999' 
WAVCIS,ioos:station:WAVCIS:CSI06:1,2011-07-06T10:00:00Z,28.8667,-90.4833,10.0,2.27,145.0,,'11111222,11111222,99999999' 
WAVCIS,ioos:station:WAVCIS:CSI06:1,2011-07-06T11:00:00Z,28.8667,-90.4833,10.0,2.408,148.0,,'11111222,11111222,99999999' 
WAVCIS,ioos:station:WAVCIS:CSI06:1,2011-07-06T12:00:00Z,28.8667,-90.4833,10.0,1.49,150.0,,'11111222,11111222,99999999' 
WAVCIS,ioos:station:WAVCIS:CSI06:1,2011-07-06T13:00:00Z,28.8667,-90.4833,10.0,1.177,111.0,,'11111222,11111222,99999999' 
WAVCIS,ioos:station:WAVCIS:CSI06:1,2011-07-06T14:00:00Z,28.8667,-90.4833,10.0,1.251,83.0,,'11111222,11111222,99999999' 
WAVCIS,ioos:station:WAVCIS:CSI06:1,2011-07-06T15:00:00Z,28.8667,-90.4833,10.0,1.521,111.0,,'11111222,11111222,99999999' 
WAVCIS,ioos:station:WAVCIS:CSI06:1,2011-07-06T16:00:00Z,28.8667,-90.4833,10.0,2.016,104.0,,'11111222,11111222,99999999' 
WAVCIS,ioos:station:WAVCIS:CSI06:1,2011-07-06T17:00:00Z,28.8667,-90.4833,10.0,3.039,112.0,,'11111222,11111222,99999999' 
WAVCIS,ioos:station:WAVCIS:CSI06:1,2011-07-06T18:00:00Z,28.8667,-90.4833,10.0,3.089,121.0,,'11111222,11111222,99999999' 
WAVCIS,ioos:station:WAVCIS:CSI06:1,2011-07-06T19:00:00Z,28.8667,-90.4833,10.0,3.242,116.0,,'11111222,11111222,99999999' 
WAVCIS,ioos:station:WAVCIS:CSI06:1,2011-07-06T20:00:00Z,28.8667,-90.4833,10.0,2.925,133.0,,'11111222,11111222,99999999' 
WAVCIS,ioos:station:WAVCIS:CSI06:1,2011-07-06T21:00:00Z,28.8667,-90.4833,10.0,2.078,145.0,,'11111222,11111222,99999999' 
WAVCIS,ioos:station:WAVCIS:CSI06:1,2011-07-06T22:00:00Z,28.8667,-90.4833,10.0,1.499,183.0,,'11111222,11111222,99999999' 
WAVCIS,ioos:station:WAVCIS:CSI06:1,2011-07-06T23:00:00Z,28.8667,-90.4833,10.0,1.155,160.0,,'11111222,11111222,99999999' 
WAVCIS,ioos:station:WAVCIS:CSI06:1,2011-07-07T00:00:00Z,28.8667,-90.4833,10.0,0.291,155.0,,'11111222,11111222,99999999' 
WAVCIS,ioos:station:WAVCIS:CSI06:1,2011-07-07T01:00:00Z,28.8667,-90.4833,10.0,0.825,193.0,,'11111222,11111222,99999999' 
WAVCIS,ioos:station:WAVCIS:CSI06:1,2011-07-07T02:00:00Z,28.8667,-90.4833,10.0,1.238,170.0,,'11111222,11111222,99999999' 
WAVCIS,ioos:station:WAVCIS:CSI06:1,2011-07-07T03:00:00Z,28.8667,-90.4833,10.0,2.393,151.0,,'11111222,11111222,99999999' 
WAVCIS,ioos:station:WAVCIS:CSI06:1,2011-07-07T04:00:00Z,28.8667,-90.4833,10.0,2.649,150.0,,'11111222,11111222,99999999' 
WAVCIS,ioos:station:WAVCIS:CSI06:1,2011-07-07T05:00:00Z,28.8667,-90.4833,10.0,2.869,149.0,,'11111222,11111222,99999999' 
WAVCIS,ioos:station:WAVCIS:CSI06:1,2011-07-07T06:00:00Z,28.8667,-90.4833,10.0,2.665,170.0,,'11111222,11111222,99999999' 
WAVCIS,ioos:station:WAVCIS:CSI06:1,2011-07-07T07:00:00Z,28.8667,-90.4833,10.0,2.173,166.0,,'11111222,11111222,99999999' 
WAVCIS,ioos:station:WAVCIS:CSI06:1,2011-07-07T08:00:00Z,28.8667,-90.4833,10.0,2.411,211.0,,'11111222,11111222,99999999' 
WAVCIS,ioos:station:WAVCIS:CSI06:1,2011-07-07T09:00:00Z,28.8667,-90.4833,10.0,2.654,222.0,,'11111222,11111222,99999999' 
WAVCIS,ioos:station:WAVCIS:CSI06:1,2011-07-07T10:00:00Z,28.8667,-90.4833,10.0,2.23,230.0,,'11111222,11111222,99999999' 
WAVCIS,ioos:station:WAVCIS:CSI06:1,2011-07-07T11:00:00Z,28.8667,-90.4833,10.0,1.996,223.0,,'11111222,11111222,99999999' 
WAVCIS,ioos:station:WAVCIS:CSI06:1,2011-07-07T12:00:00Z,28.8667,-90.4833,10.0,1.212,264.0,,'11111222,11111222,99999999' 
WAVCIS,ioos:station:WAVCIS:CSI06:1,2011-07-07T13:00:00Z,28.8667,-90.4833,10.0,1.454,261.0,,'11111222,11111222,99999999' 
WAVCIS,ioos:station:WAVCIS:CSI06:1,2011-07-07T14:00:00Z,28.8667,-90.4833,10.0,0.849,275.0,,'11111222,11111222,99999999' 
WAVCIS,ioos:station:WAVCIS:CSI06:1,2011-07-07T15:00:00Z,28.8667,-90.4833,10.0,2.475,296.0,,'11111222,11111222,99999999' 
WAVCIS,ioos:station:WAVCIS:CSI06:1,2011-07-07T16:00:00Z,28.8667,-90.4833,10.0,2.089,324.0,,'11111222,11111222,99999999' 
WAVCIS,ioos:station:WAVCIS:CSI06:1,2011-07-07T17:00:00Z,28.8667,-90.4833,10.0,3.853,13.0,,'11111222,11111222,99999999' 
WAVCIS,ioos:station:WAVCIS:CSI06:1,2011-07-07T18:00:00Z,28.8667,-90.4833,10.0,2.336,22.0,,'11111222,11111222,99999999' 
WAVCIS,ioos:station:WAVCIS:CSI06:1,2011-07-07T19:00:00Z,28.8667,-90.4833,10.0,0.911,22.0,,'11111222,11111222,99999999' 
WAVCIS,ioos:station:WAVCIS:CSI06:1,2011-07-07T20:00:00Z,28.8667,-90.4833,10.0,1.48,89.0,,'11111222,11111222,99999999' 
WAVCIS,ioos:station:WAVCIS:CSI06:1,2011-07-07T21:00:00Z,28.8667,-90.4833,10.0,2.147,95.0,,'11111222,11111222,99999999' 
WAVCIS,ioos:station:WAVCIS:CSI06:1,2011-07-07T22:00:00Z,28.8667,-90.4833,10.0,1.262,172.0,,'11111222,11111222,99999999' 
WAVCIS,ioos:station:WAVCIS:CSI06:1,2011-07-07T23:00:00Z,28.8667,-90.4833,10.0,1.236,183.0,,'11111222,11111222,99999999' 
WAVCIS,ioos:station:WAVCIS:CSI06:1,2011-07-08T00:00:00Z,28.8667,-90.4833,10.0,1.397,213.0,,'11111222,11111222,99999999' 
WAVCIS,ioos:station:WAVCIS:CSI06:1,2011-07-08T01:00:00Z,28.8667,-90.4833,10.0,1.949,209.0,,'11111222,11111222,99999999' 
WAVCIS,ioos:station:WAVCIS:CSI06:1,2011-07-08T02:00:00Z,28.8667,-90.4833,10.0,2.603,196.0,,'11111222,11111222,99999999' 
WAVCIS,ioos:station:WAVCIS:CSI06:1,2011-07-08T03:00:00Z,28.8667,-90.4833,10.0,2.402,184.0,,'11111222,11111222,99999999' 
WAVCIS,ioos:station:WAVCIS:CSI06:1,2011-07-08T04:00:00Z,28.8667,-90.4833,10.0,3.382,193.0,,'11111222,11111222,99999999' 
WAVCIS,ioos:station:WAVCIS:CSI06:1,2011-07-08T05:00:00Z,28.8667,-90.4833,10.0,3.887,216.0,,'11111222,11111222,99999999' 
WAVCIS,ioos:station:WAVCIS:CSI06:1,2011-07-08T06:00:00Z,28.8667,-90.4833,10.0,4.191,222.0,,'11111222,11111222,99999999' 
WAVCIS,ioos:station:WAVCIS:CSI06:1,2011-07-08T07:00:00Z,28.8667,-90.4833,10.0,3.469,234.0,,'11111222,11111222,99999999' 
WAVCIS,ioos:station:WAVCIS:CSI06:1,2011-07-08T08:00:00Z,28.8667,-90.4833,10.0,3.783,246.0,,'11111222,11111222,99999999' 
WAVCIS,ioos:station:WAVCIS:CSI06:1,2011-07-08T09:00:00Z,28.8667,-90.4833,10.0,3.658,246.0,,'11111222,11111222,99999999' 
WAVCIS,ioos:station:WAVCIS:CSI06:1,2011-07-08T10:00:00Z,28.8667,-90.4833,10.0,4.05,244.0,,'11111222,11111222,99999999' 
WAVCIS,ioos:station:WAVCIS:CSI06:1,2011-07-08T11:00:00Z,28.8667,-90.4833,10.0,3.663,250.0,,'11111222,11111222,99999999' 
WAVCIS,ioos:station:WAVCIS:CSI06:1,2011-07-08T12:00:00Z,28.8667,-90.4833,10.0,4.215,256.0,,'11111222,11111222,99999999' 
WAVCIS,ioos:station:WAVCIS:CSI06:1,2011-07-08T13:00:00Z,28.8667,-90.4833,10.0,4.576,256.0,,'11111222,11111222,99999999' 
WAVCIS,ioos:station:WAVCIS:CSI06:1,2011-07-08T14:00:00Z,28.8667,-90.4833,10.0,4.01,250.0,,'11111222,11111222,99999999' 
WAVCIS,ioos:station:WAVCIS:CSI06:1,2011-07-08T15:00:00Z,28.8667,-90.4833,10.0,3.166,256.0,,'11111222,11111222,99999999' 
WAVCIS,ioos:station:WAVCIS:CSI06:1,2011-07-08T16:00:00Z,28.8667,-90.4833,10.0,3.167,253.0,,'11111222,11111222,99999999' 
WAVCIS,ioos:station:WAVCIS:CSI06:1,2011-07-08T17:00:00Z,28.8667,-90.4833,10.0,1.936,249.0,,'11111222,11111222,99999999' 
WAVCIS,ioos:station:WAVCIS:CSI06:1,2011-07-08T18:00:00Z,28.8667,-90.4833,10.0,2.5,237.0,,'11111222,11111222,99999999' 
WAVCIS,ioos:station:WAVCIS:CSI06:1,2011-07-08T19:00:00Z,28.8667,-90.4833,10.0,3.428,229.0,,'11111222,11111222,99999999' 
WAVCIS,ioos:station:WAVCIS:CSI06:1,2011-07-08T20:00:00Z,28.8667,-90.4833,10.0,2.148,236.0,,'11111222,11111222,99999999' 
WAVCIS,ioos:station:WAVCIS:CSI06:1,2011-07-08T21:00:00Z,28.8667,-90.4833,10.0,3.601,242.0,,'11111222,11111222,99999999' 
WAVCIS,ioos:station:WAVCIS:CSI06:1,2011-07-08T22:00:00Z,28.8667,-90.4833,10.0,3.761,244.0,,'11111222,11111222,99999999' 
WAVCIS,ioos:station:WAVCIS:CSI06:1,2011-07-08T23:00:00Z,28.8667,-90.4833,10.0,3.671,231.0,,'11111222,11111222,99999999' 
WAVCIS,ioos:station:WAVCIS:CSI06:1,2011-07-09T00:00:00Z,28.8667,-90.4833,10.0,4.05,255.0,,'11111222,11111222,99999999' 
WAVCIS,ioos:station:WAVCIS:CSI06:1,2011-07-09T01:00:00Z,28.8667,-90.4833,10.0,3.346,236.0,,'11111222,11111222,99999999' 
WAVCIS,ioos:station:WAVCIS:CSI06:1,2011-07-09T02:00:00Z,28.8667,-90.4833,10.0,3.438,215.0,,'11111222,11111222,99999999' 
WAVCIS,ioos:station:WAVCIS:CSI06:1,2011-07-09T03:00:00Z,28.8667,-90.4833,10.0,4.446,196.0,,'11111222,11111222,99999999' 
WAVCIS,ioos:station:WAVCIS:CSI06:1,2011-07-09T04:00:00Z,28.8667,-90.4833,10.0,4.3,219.0,,'11111222,11111222,99999999' 